sat.trackr.live / text

‹ back to catalog

STARLINK-2422

NORAD 47832 · 2021-018AX

PAYLOAD ACTIVE UNKNOWN

§ Identity

Operator
Country
US
Launch date
2021-03-11
Launch site
AFETR
Launch vehicle
Mass (kg)
RCS (m²)

Purposes: comms

External: N2YO · Heavens-Above · Gunter

§ Orbital elements

Epoch: 2026-09-19T21:45:11.291616Z

Period
94.01 min
Inclination
53.1608°
Eccentricity
0.0001196
Mean motion
15.31714406 rev/d
Perigee alt
469.9 km
Apogee alt
471.5 km
Semi-major
6,848.8 km
B*
3.4468e-5
RAAN
61.8616°
Arg perigee
91.5685°
Mean anomaly
268.5454°
Rev number
30,644

§ Raw data

STARLINK-24221 47832U 21018AX  26262.90638069  .00000705  00000+0  34468-4 0  99952 47832  53.1608  61.8616 0001196  91.5685 268.5454 15.31714406306441

JSON: /api/v1/satellites/47832 · /tle

For live sub-satellite position, see the globe view (requires WebGL).

§ Visibility from observer

Set your observer location to see the next 7 days of passes ≥ 10°. The values pass through the URL so the page stays shareable.

No JS? Fill the form by hand. The geolocation button needs JavaScript.